Location: Loriol
(44.0763°N, 4.9992°E)
Time: 20:04:09
(UTC+00:00)

Daily predictions for brighter satellites

Satellite Brightness Start Highest point End
(mag) Time Altitude Azimuth Time Altitude Azimuth Time Altitude Azimuth
Cosmos 1486 Rocket 4.3 19:23:22 10° S 19:28:28 49° ESE 19:33:37 10° NNE
CZ-4C R/B 4.2 19:24:16 10° NNW 19:30:10 28° NE 19:36:53 10° E
FALCON 9 DEB 3.1 19:30:21 10° WNW 19:33:21 59° SW 19:36:22 10° SE
ERS-2 2.8 19:30:09 10° N 19:33:45 60° WNW 19:37:19 10° SSW
SL-4 R/B 2.3 19:30:01 10° WNW 19:34:20 74° SW 19:38:59 10° SE
SL-08 ROCKET BODY 4.4 19:31:29 10° N 19:37:24 73° E 19:43:13 10° SSE
Helios 1A Rocket 4.3 19:34:06 10° S 19:38:00 41° W 19:41:57 10° NNW
ATLAS 5 CENTAUR R/B 3.0 19:35:56 10° NNW 19:41:11 43° NE 19:47:08 11° ESE
Cosmos 1844 3.8 19:36:39 10° S 19:42:14 59° ESE 19:47:50 10° NNE
OBJECT-B 1.4 19:39:20 10° S 19:42:31 58° W 19:45:45 10° NNW
IRS-1A Rocket 4.4 19:44:43 10° SSE 19:50:28 90° W 19:56:23 10° NNW
Cosmos 1833 Rocket 4.4 19:49:12 10° N 19:53:22 21° NE 19:57:31 10° E
Intercosmos 24 3.9 19:49:42 10° S 19:53:29 49° E 19:56:56 10° NNE
Cosmos 1242 Rocket 3.1 19:52:49 10° SSE 19:56:09 37° E 19:59:28 10° NNE
Cosmos 1805 Rocket 3.5 19:56:00 10° N 20:00:22 83° E 20:04:44 10° S
FALCON 9 DEB 4.5 20:04:53 10° WNW 20:07:28 25° SW 20:09:21 14° S
Cosmos 1633 Rocket 3.8 20:03:57 10° N 20:08:03 37° ENE 20:10:42 19° SE
Cosmos 1386 Rocket 4.4 20:02:14 10° N 20:08:18 84° E 20:14:24 10° S
DELTA 2 R/B (1) 4.0 20:03:14 10° W 20:08:32 46° SSW 20:12:22 18° SE
ARIANE 5 R/B 3.9 20:06:13 16° ESE 20:08:36 25° ENE 20:12:09 10° NNE
Terra 3.8 20:06:40 10° E 20:09:10 15° ENE 20:11:45 10° NNE
CZ-2C R/B 4.1 20:05:01 10° NNE 20:09:16 42° E 20:13:08 12° SSE
USA 290 2.1 20:09:46 10° NNW 20:13:01 74° ENE 20:14:52 23° SSE
ERS-1 Rocket 4.4 20:10:41 15° ESE 20:13:31 24° ENE 20:17:27 10° NNE
IGS 5A 3.4 20:11:11 16° SSE 20:14:25 72° ENE 20:18:34 10° N
Intercosmos 25 Rocket 4.5 20:09:01 10° NNW 20:15:15 60° W 20:19:11 10° S
Resurs 1-3 4.3 20:12:23 10° S 20:16:40 54° W 20:20:59 10° NNW
Cosmos 1328 Rocket 4.2 20:14:51 19° SSE 20:17:34 38° E 20:21:40 10° NNE
Cosmos 1745 Rocket 4.1 20:11:38 10° N 20:17:52 81° W 20:23:59 10° S
Cosmos 1437 3.8 20:17:58 22° E 20:17:58 22° E 20:20:10 10° NE
Cosmos 1933 3.3 20:14:30 10° S 20:18:31 89° ESE 20:22:35 10° N
Cosmos 1503 Rocket 3.9 20:14:19 10° SSW 20:19:27 79° ESE 20:24:40 10° NNE
Cosmos 1709 Rocket 4.0 20:14:29 10° N 20:20:34 63° E 20:25:15 17° SSE
Cosmos 1437 Rocket 4.0 20:17:43 10° SSW 20:21:24 43° WNW 20:25:11 10° N
X-37B 0.5 20:19:27 10° W 20:22:39 86° N 20:24:16 27° E
CARTOSAT-1 4.5 20:23:35 22° ESE 20:25:34 33° ENE 20:29:27 10° N
Cosmos 2082 Rocket 3.9 20:24:42 10° N 20:28:48 20° NE 20:32:17 12° E
Cosmos 1500 4.0 20:25:34 10° N 20:29:01 34° ENE 20:30:08 28° ESE
COSMOS 2406 4.1 20:24:14 10° N 20:29:25 35° NE 20:32:38 20° ESE
Ariane Rocket 4.2 20:26:29 10° SSW 20:31:11 39° W 20:35:56 10° NNW
Meteor 1-20 Rocket 4.4 20:26:47 10° NNW 20:32:24 73° W 20:37:10 14° S
Cosmos 1666 Rocket 3.5 20:30:14 10° N 20:34:40 87° E 20:37:20 23° S
IRIS 4.4 20:33:22 10° WSW 20:35:44 40° S 20:35:51 40° S
Meteor 2-17 Rocket 4.4 20:30:55 10° N 20:37:07 88° E 20:41:51 18° S
Cosmos 2315 Rocket 4.0 20:31:42 10° S 20:38:02 76° E 20:44:26 10° N
Cosmos 1782 2.7 20:36:20 19° S 20:39:08 83° E 20:43:09 10° N
Landsat 7 4.0 20:35:42 19° S 20:39:11 73° WSW 20:43:57 10° NNW
USA 245 2.4 20:42:52 52° NNE 20:42:52 52° NNE 20:44:46 10° N
Cosmos 1271 Rocket 4.2 20:46:42 23° E 20:46:42 23° E 20:49:41 10° NE
SPOT 1/Viking Rocket 3.5 20:45:30 24° SSE 20:48:41 88° WSW 20:53:55 10° NNW
Cosmos 1354 Rocket 4.4 20:46:13 10° SSW 20:51:24 65° WNW 20:56:39 10° NNE
Cosmos 1602 4.2 20:48:18 10° NNW 20:52:06 58° W 20:54:02 26° SSW
SJ 16-02 2.2 20:52:10 30° ESE 20:52:15 30° E 20:56:09 10° NE
Cosmos 2278 Rocket 2.4 20:50:05 25° SSE 20:52:58 47° ESE 20:58:22 10° NE
Resurs 01 Rocket 3.0 20:53:03 13° SSW 20:56:35 35° W 21:00:41 10° NNW
Cosmos 2228 Rocket 4.2 21:01:58 27° E 21:01:58 27° E 21:05:42 10° NNE
H-2A R/B 4.1 21:00:52 10° NNE 21:04:39 36° E 21:04:39 36° E
NOSS 3-3 (A) 3.9 21:00:55 10° SW 21:06:37 80° NW 21:13:11 10° NE
NOSS 3-3 (C) 3.9 21:01:01 10° SW 21:06:44 81° NW 21:13:18 10° NE
USA 307 4.2 21:06:47 10° NW 21:10:45 36° NNE 21:12:48 23° ENE
ATLAS 2AS CENTAUR R/B 4.0 21:05:18 10° NNW 21:11:59 34° NE 21:16:52 16° E
SL-4 R/B 4.4 21:10:50 10° W 21:13:30 15° SW 21:14:33 14° SW
Cosmos 1151 Rocket 4.2 21:09:49 12° SSW 21:13:32 42° WNW 21:17:42 10° N
CREW DRAGON DEMO-1 DEB 4.5 21:12:59 10° NW 21:15:13 24° NNE 21:15:13 24° NNE
BREEZE-M R/B 3.8 21:15:26 10° WNW 21:17:36 28° N 21:18:26 23° NNE
Cosmos 1812 2.7 21:16:50 53° SSW 21:17:40 78° W 21:21:33 10° N
Meteor 1-10 Rocket 4.2 21:17:12 40° SSE 21:19:06 64° E 21:24:41 10° NNE
Cosmos 1536 4.1 21:16:00 10° NNE 21:19:22 27° ENE 21:19:22 27° ENE
CZ-4C R/B 3.0 21:12:21 10° NW 21:19:42 85° NE 21:23:48 34° SE
Iridium 4 Rocket 3.7 21:18:17 38° SSE 21:20:36 77° E 21:26:31 10° N
USA 308 3.9 21:20:16 10° NW 21:24:21 41° NNE 21:25:49 30° ENE
ATLAS 5 CENTAUR R/B 3.2 21:20:29 10° NW 21:25:57 43° WSW 21:28:41 29° SSW
Cosmos 1538 Rocket 4.0 21:22:00 10° NNW 21:27:25 84° ENE 21:28:51 50° SSE
Cosmos 2084 4.2 21:24:41 10° WSW 21:28:43 50° NW 21:32:51 10° NNE
Meteor 1-5 Rocket 4.1 21:23:34 10° NNW 21:28:58 76° W 21:30:46 42° S
SL-24 DEB 4.3 21:30:18 54° ESE 21:30:46 57° E 21:35:17 10° N
Milstar 3 4.2 21:21:29 10° SW 21:31:43 29° S 21:32:20 29° S
Cosmos 158 Rocket 4.1 21:27:00 10° NNW 21:31:49 55° ENE 21:32:38 48° ESE
Cosmos 1666 2.6 21:31:15 10° NNW 21:34:56 74° W 21:34:56 74° W
Cosmos 1515 Rocket 4.1 21:34:00 34° SW 21:35:37 55° W 21:39:58 10° N
Cosmos 1833 Rocket 2.7 21:32:16 10° NNW 21:37:55 75° WSW 21:39:27 49° S
Spot 2 Rocket 4.4 21:36:58 28° SW 21:39:00 40° W 21:43:46 10° NNW
Cosmos 1869 Rocket 3.7 21:37:02 10° N 21:41:16 57° ENE 21:41:16 57° ENE
SPOT 5 3.3 21:41:10 42° SSW 21:42:36 58° W 21:47:47 10° NNW
Cosmos 1743 4.3 21:40:09 10° NNE 21:42:43 24° NE 21:42:43 24° NE
Cosmos 1680 Rocket 4.2 21:39:45 10° N 21:44:48 41° ENE 21:45:47 38° E
ARIANE 5 R/B 3.9 21:43:44 27° SW 21:44:55 32° W 21:48:50 10° NNW
Terra 1.8 21:45:33 60° SSW 21:46:19 73° WSW 21:51:06 10° NNW
ERS-1 Rocket 3.7 21:50:41 37° SW 21:52:00 46° W 21:56:51 10° NNW
Cosmos 2154 Rocket 3.9 21:52:10 10° N 21:58:33 89° ENE 22:00:11 53° S
Cosmos 1707 Rocket 4.4 21:59:37 40° ENE 21:59:37 40° ENE 22:03:00 10° NNE
X-37B 3.5 21:56:15 10° W 21:56:32 12° W 21:56:32 12° W
USA 305 3.1 22:01:41 10° NW 22:05:35 69° NNW 22:05:35 69° NNW
Cosmos 2184 Rocket 4.4 22:00:12 10° NNW 22:06:16 55° W 22:08:18 39° SW
Meteor 1-27 Rocket 3.9 22:12:02 52° SSW 22:13:30 75° WNW 22:19:25 10° N
Cosmos 2082 Rocket 2.1 22:07:53 10° NNW 22:13:31 75° WSW 22:14:08 67° SSW
COSMOS 2406 4.0 22:08:32 10° NW 22:13:44 38° WSW 22:14:42 35° SW
Cosmos 962 Rocket 4.4 22:09:58 10° N 22:16:07 72° E 22:17:03 62° SE
Cosmos 44 4.1 22:12:10 10° NNW 22:17:26 46° NE 22:18:21 42° ENE
Nadezhda 1 Rocket 4.2 22:16:05 42° SW 22:18:12 66° W 22:24:27 10° N
Cosmos 923 Rocket 3.9 22:15:08 10° NNW 22:20:24 78° WSW 22:20:38 76° SW
Cosmos 1898 Rocket 3.4 22:20:54 71° E 22:20:54 71° E 22:26:05 10° NNE
Cosmos 1271 Rocket 4.5 22:21:48 26° W 22:22:20 27° WNW 22:25:49 10° NNW
USA 306 3.6 22:20:52 10° NW 22:24:02 48° WNW 22:24:02 48° WNW
SJ 16-02 3.2 22:29:06 21° W 22:30:49 27° WNW 22:34:37 10° N
Cosmos 1733 Rocket 3.6 22:28:50 10° N 22:32:19 53° NNE 22:32:19 53° NNE
Meteor 1-19 Rocket 4.4 22:33:42 54° E 22:33:42 54° E 22:38:39 10° NNE
Cosmos 2181 Rocket 3.9 22:34:44 63° ESE 22:35:13 65° E 22:41:18 10° NNE
Cosmos 2278 Rocket 3.9 22:32:19 10° WSW 22:37:14 30° NW 22:42:11 10° N
Cosmos 1238 Rocket 3.6 22:33:15 10° N 22:39:34 79° E 22:39:54 76° ESE
Okean 1 4.5 22:40:56 40° NNE 22:40:56 40° NNE 22:43:35 10° N
Cosmos 990 Rocket 4.2 22:40:05 59° W 22:40:39 63° WNW 22:45:53 10° NNE
Cosmos 1340 Rocket 4.0 22:40:29 10° NNW 22:43:27 40° NW 22:43:27 40° NW
Cosmos 2369 Rocket 3.1 22:48:04 35° E 22:48:04 35° E 22:52:12 10° NE
Cosmos 2366 rocket 3.9 22:42:50 10° N 22:49:01 73° E 22:49:36 68° ESE
NOSS 3-4 (A) 4.1 22:42:57 10° NW 22:49:51 54° WSW 22:50:58 50° SSW
NOSS 3-4 (C) 4.1 22:43:03 10° NW 22:49:58 54° WSW 22:51:05 50° SSW
Cosmos 967 Rocket 4.3 22:49:56 72° SSW 22:50:38 87° ESE 22:56:57 10° NE
Cosmos 2341 Rocket 4.0 22:44:30 10° NNW 22:50:53 72° W 22:51:45 63° SW
Cosmos 1943 Rocket 2.1 22:52:39 78° E 22:52:39 78° E 22:58:05 10° NNE
Meteor 2-9 Rocket 4.1 22:50:37 10° N 22:56:27 85° E 22:56:34 83° ESE
SeaSat 1 4.1 22:52:33 10° NE 22:55:08 23° ENE 22:55:08 23° ENE
Cosmos 2112 Rocket 4.4 22:53:54 10° NNW 22:58:49 54° W 22:58:49 54° W
USA 215 3.8 22:57:11 23° E 23:01:17 55° NNE 23:07:37 10° NW
ATLAS 2AS CENTAUR R/B 2.6 22:56:18 10° NW 23:03:34 71° WSW 23:04:17 66° SSW
RESURS DK-1 4.4 23:04:21 10° N 23:07:39 22° NE 23:07:43 22° NE
CZ-4C R/B 4.3 23:01:52 10° WNW 23:07:52 25° WSW 23:08:59 24° WSW
Cosmos 2218 Rocket 3.9 23:02:14 10° N 23:08:31 80° W 23:09:04 73° SSW
Meteor 2-4 Rocket 3.8 23:09:23 66° E 23:09:23 66° E 23:14:53 10° NNE
Cosmos 1975 4.1 23:05:44 10° N 23:08:17 38° N 23:08:17 38° N
SL-24 R/B - RUBIN 2 4.3 23:04:48 10° NW 23:09:19 58° WNW 23:09:19 58° WNW
Cosmos 489 Rocket 4.3 23:05:27 10° NNW 23:11:43 90° ENE 23:12:08 79° SSE
Cosmos 1656 Rocket 4.5 23:17:56 38° E 23:17:56 38° E 23:22:04 10° NE
Cosmos 1937 Rocket 4.2 23:26:03 42° WNW 23:26:26 43° WNW 23:31:22 10° N
Meteor 1-18 Rocket 4.5 23:27:33 57° W 23:27:49 57° WNW 23:33:22 10° N
Nadezhda 3 Rocket 4.1 23:28:06 60° ESE 23:28:26 61° E 23:34:33 10° NNE
ATLAS CENTAUR R/B 3.9 23:34:53 12° ENE 23:34:53 12° ENE 23:35:13 10° ENE
ALOS 2 3.8 23:36:53 36° NW 23:36:53 36° NW 23:39:52 10° NNW
Cosmos 1607 4.1 23:36:39 62° ESE 23:36:39 62° ESE 23:42:56 10° NE
Thor Agena Rocket 3.6 23:31:47 10° NNE 23:36:39 75° NE 23:36:39 75° NE
Cosmos 1818 3.9 23:32:20 10° NW 23:36:53 56° WNW 23:36:53 56° WNW
Cosmos 1048 Rocket 4.2 23:34:00 10° NNW 23:39:11 64° ENE 23:39:11 64° ENE
Cosmos 2298 Rocket 4.3 23:41:55 61° ENE 23:41:55 61° ENE 23:46:33 10° NNE
Okean 1-7 4.0 23:42:48 45° N 23:42:48 45° N 23:45:49 10° N
SL-08 R/B 4.4 23:41:00 10° NNW 23:47:11 71° W 23:47:30 69° WSW
Resurs 1-4 Rocket 4.3 23:50:15 10° ENE 23:52:45 13° E 23:53:19 13° E
